Location: Castifao
(42.5040°N, 9.1124°E)
Time: 17:31:37
(UTC+00:00)

Meteor 2-12 Rocket - Pass Details

Date: 23 January 2020
Orbit: 936 x 957 km, 82.5° (Epoch: 23 February)

Event Time Altitude Azimuth Distance (km) Brightness Sun altitude
Rises 18:12:09 0° 177° (S) 3,583 7.5 -19.6°
Reaches altitude 10° 18:14:38 10° 174° (S) 2,641 6.8 -20.1°
Maximum altitude 18:20:36 65° 94° (E) 1,023 4.3 -21.2°
Drops below altitude 10° 18:26:35 10° 14° (NNE) 2,657 6.6 -22.3°
Sets 18:29:05 0° 12° (NNE) 3,607 7.3 -22.7°
